Estación Meteorológica de la Universidad de Murcia
Estación Meteorológica de la Universidad de Murcia
Universidad de Murcia
 

Temperatura y Humedad del sueloTemperatura y Humedad del suelo

 

Temperatura del suelo máxima: 26 ºC a las 14:54:00 del día 19/10/2017
Temperatura del suelo mínima: 13,3 ºC a las 08:44:00 del día 19/10/2017
Humedad del suelo máxima: 46,7 % a las 14:26:00 del día 19/10/2017
Humedad del suelo mínima: 24,6 % a las 00:00:00 del día 19/10/2017

||Temperatura del suelo máxima últimos meses|| ---- ||Temperatura del suelo mínima últimos meses||

----||Humedad del suelo máxima últimos meses|| ---- ||Humedad del suelo mínima últimos meses||


Temperatura del suelo máxima

  • 1 - 26 ºC del día 19/10/2017
  • 2 - 70 ºC del día 18/10/2017
  • 3 - 30,7 ºC del día 17/10/2017
  • 4 - 31,1 ºC del día 16/10/2017
  • 5 - 31,9 ºC del día 15/10/2017
  • 6 - 33,2 ºC del día 14/10/2017
  • 7 - 35,3 ºC del día 13/10/2017
  • 8 - 34,6 ºC del día 12/10/2017
  • 9 - 33,6 ºC del día 11/10/2017
  • 10 - 32,9 ºC del día 10/10/2017
  • 11 - 33,3 ºC del día 09/10/2017
  • 12 - 33 ºC del día 08/10/2017
  • 13 - 33 ºC del día 07/10/2017
  • 14 - 34,5 ºC del día 06/10/2017
  • 15 - 34,1 ºC del día 05/10/2017
  • 16 - 33,4 ºC del día 04/10/2017
  • 17 - 34,2 ºC del día 03/10/2017
  • 18 - 33,4 ºC del día 02/10/2017
  • 19 - 31,9 ºC del día 01/10/2017
  • 20 - 32,6 ºC del día 30/09/2017
  • 21 - 33,2 ºC del día 29/09/2017
  • 22 - 34,6 ºC del día 28/09/2017
  • 23 - 36,6 ºC del día 27/09/2017
  • 24 - 36,5 ºC del día 26/09/2017
  • 25 - 41 ºC del día 25/09/2017
  • 26 - 38,7 ºC del día 24/09/2017
  • 27 - 36 ºC del día 23/09/2017
  • 28 - 35,5 ºC del día 22/09/2017
  • 29 - 36,8 ºC del día 21/09/2017
  • 30 - 35,4 ºC del día 20/09/2017
  • 31 - 35,4 ºC del día 19/09/2017
  • 32 - 36,9 ºC del día 18/09/2017
  • 33 - 36,1 ºC del día 17/09/2017
  • 34 - 33,7 ºC del día 16/09/2017
  • 35 - 36,5 ºC del día 15/09/2017
  • 36 - 40,3 ºC del día 14/09/2017
  • 37 - 37,2 ºC del día 13/09/2017
  • 38 - 36,9 ºC del día 12/09/2017
  • 39 - 37,7 ºC del día 11/09/2017
  • 40 - 31,3 ºC del día 10/09/2017
  • 41 - 33 ºC del día 09/09/2017
  • 42 - 35,2 ºC del día 08/09/2017
  • 43 - 34,3 ºC del día 07/09/2017
  • 44 - 36,3 ºC del día 06/09/2017
  • 45 - 35,9 ºC del día 05/09/2017
  • 46 - 37 ºC del día 04/09/2017
  • 47 - 36 ºC del día 03/09/2017
  • 48 - 33,6 ºC del día 02/09/2017
  • 49 - 34 ºC del día 01/09/2017
  • 50 - 35,5 ºC del día 31/08/2017
  • 51 - 28,6 ºC del día 30/08/2017
  • 52 - 29,8 ºC del día 29/08/2017
  • 53 - 33,5 ºC del día 28/08/2017
  • 54 - 36,5 ºC del día 27/08/2017
  • 55 - 37,8 ºC del día 26/08/2017
  • 56 - 38,5 ºC del día 25/08/2017
  • 57 - 38,2 ºC del día 24/08/2017
  • 58 - 38,9 ºC del día 23/08/2017
  • 59 - 39,7 ºC del día 22/08/2017
  • 60 - 37,1 ºC del día 21/08/2017

||Volver al inicio de la página||


Temperatura del suelo mínima

  • 1 - 13,3 ºC del día 19/10/2017
  • 2 - -30 ºC del día 18/10/2017
  • 3 - 14,8 ºC del día 17/10/2017
  • 4 - 15,4 ºC del día 16/10/2017
  • 5 - 17,6 ºC del día 15/10/2017
  • 6 - 15,4 ºC del día 14/10/2017
  • 7 - 15,1 ºC del día 13/10/2017
  • 8 - 14,7 ºC del día 12/10/2017
  • 9 - 15,1 ºC del día 11/10/2017
  • 10 - 15,3 ºC del día 10/10/2017
  • 11 - 14,8 ºC del día 09/10/2017
  • 12 - 15 ºC del día 08/10/2017
  • 13 - 15,2 ºC del día 07/10/2017
  • 14 - 15,6 ºC del día 06/10/2017
  • 15 - 16,9 ºC del día 05/10/2017
  • 16 - 17,4 ºC del día 04/10/2017
  • 17 - 17,1 ºC del día 03/10/2017
  • 18 - 17,7 ºC del día 02/10/2017
  • 19 - 17,8 ºC del día 01/10/2017
  • 20 - 15,4 ºC del día 30/09/2017
  • 21 - 16 ºC del día 29/09/2017
  • 22 - 18,1 ºC del día 28/09/2017
  • 23 - 19,3 ºC del día 27/09/2017
  • 24 - 16,6 ºC del día 26/09/2017
  • 25 - 14,8 ºC del día 25/09/2017
  • 26 - 15,7 ºC del día 24/09/2017
  • 27 - 16,6 ºC del día 23/09/2017
  • 28 - 17,7 ºC del día 22/09/2017
  • 29 - 15,8 ºC del día 21/09/2017
  • 30 - 16,7 ºC del día 20/09/2017
  • 31 - 16,3 ºC del día 19/09/2017
  • 32 - 16,1 ºC del día 18/09/2017
  • 33 - 15,9 ºC del día 17/09/2017
  • 34 - 17,3 ºC del día 16/09/2017
  • 35 - 20,5 ºC del día 15/09/2017
  • 36 - 17,3 ºC del día 14/09/2017
  • 37 - 17,6 ºC del día 13/09/2017
  • 38 - 15,8 ºC del día 12/09/2017
  • 39 - 15 ºC del día 11/09/2017
  • 40 - 17,7 ºC del día 10/09/2017
  • 41 - 20,1 ºC del día 09/09/2017
  • 42 - 21,1 ºC del día 08/09/2017
  • 43 - 21 ºC del día 07/09/2017
  • 44 - 19,7 ºC del día 06/09/2017
  • 45 - 21,5 ºC del día 05/09/2017
  • 46 - 20,2 ºC del día 04/09/2017
  • 47 - 19,4 ºC del día 03/09/2017
  • 48 - 21,5 ºC del día 02/09/2017
  • 49 - 20,8 ºC del día 01/09/2017
  • 50 - 20,4 ºC del día 31/08/2017
  • 51 - 19,4 ºC del día 30/08/2017
  • 52 - 18,9 ºC del día 29/08/2017
  • 53 - 21,8 ºC del día 28/08/2017
  • 54 - 22,6 ºC del día 27/08/2017
  • 55 - 21,7 ºC del día 26/08/2017
  • 56 - 19,3 ºC del día 25/08/2017
  • 57 - 20,2 ºC del día 24/08/2017
  • 58 - 18,8 ºC del día 23/08/2017
  • 59 - 19,1 ºC del día 22/08/2017
  • 60 - 21,7 ºC del día 21/08/2017

||Volver al inicio de la página||


Humedad del suelo máxima

  • 1 - 46,7 % del día 19/10/2017
  • 2 - 43,2 % del día 18/10/2017
  • 3 - 34,5 % del día 17/10/2017
  • 4 - 33,7 % del día 16/10/2017
  • 5 - 33,9 % del día 15/10/2017
  • 6 - 33,6 % del día 14/10/2017
  • 7 - 33,9 % del día 13/10/2017
  • 8 - 34,3 % del día 12/10/2017
  • 9 - 33,2 % del día 11/10/2017
  • 10 - 33 % del día 10/10/2017
  • 11 - 34 % del día 09/10/2017
  • 12 - 33,9 % del día 08/10/2017
  • 13 - 33,8 % del día 07/10/2017
  • 14 - 34,7 % del día 06/10/2017
  • 15 - 38,2 % del día 05/10/2017
  • 16 - 36,6 % del día 04/10/2017
  • 17 - 34,8 % del día 03/10/2017
  • 18 - 35,1 % del día 02/10/2017
  • 19 - 35,9 % del día 01/10/2017
  • 20 - 35,9 % del día 30/09/2017
  • 21 - 35,3 % del día 29/09/2017
  • 22 - 35,4 % del día 28/09/2017
  • 23 - 37,7 % del día 27/09/2017
  • 24 - 35,5 % del día 26/09/2017
  • 25 - 35,5 % del día 25/09/2017
  • 26 - 37,1 % del día 24/09/2017
  • 27 - 39,1 % del día 23/09/2017
  • 28 - 37,7 % del día 22/09/2017
  • 29 - 38,5 % del día 21/09/2017
  • 30 - 38 % del día 20/09/2017
  • 31 - 40,4 % del día 19/09/2017
  • 32 - 46,3 % del día 18/09/2017
  • 33 - 39,7 % del día 17/09/2017
  • 34 - 41,2 % del día 16/09/2017
  • 35 - 44,6 % del día 15/09/2017
  • 36 - 43,7 % del día 14/09/2017
  • 37 - 44,2 % del día 13/09/2017
  • 38 - 44,4 % del día 12/09/2017
  • 39 - 52,2 % del día 11/09/2017
  • 40 - 47,7 % del día 10/09/2017
  • 41 - 48,3 % del día 09/09/2017
  • 42 - 50,5 % del día 08/09/2017
  • 43 - 52,9 % del día 07/09/2017
  • 44 - 53,5 % del día 06/09/2017
  • 45 - 56,8 % del día 05/09/2017
  • 46 - 56,7 % del día 04/09/2017
  • 47 - 63,3 % del día 03/09/2017
  • 48 - 61,1 % del día 02/09/2017
  • 49 - 63,4 % del día 01/09/2017
  • 50 - 65,6 % del día 31/08/2017
  • 51 - 75,3 % del día 30/08/2017
  • 52 - 48,3 % del día 29/08/2017
  • 53 - 23,3 % del día 28/08/2017
  • 54 - 23,2 % del día 27/08/2017
  • 55 - 24,2 % del día 26/08/2017
  • 56 - 23,7 % del día 25/08/2017
  • 57 - 23,9 % del día 24/08/2017
  • 58 - 24,3 % del día 23/08/2017
  • 59 - 26,2 % del día 22/08/2017
  • 60 - 25,1 % del día 21/08/2017

||Volver al inicio de la página||


Humedad del suelo mínima

  • 1 - 24,6 % del día 19/10/2017
  • 2 - 0 % del día 18/10/2017
  • 3 - 19,3 % del día 17/10/2017
  • 4 - 19,4 % del día 16/10/2017
  • 5 - 19,4 % del día 15/10/2017
  • 6 - 19,7 % del día 14/10/2017
  • 7 - 19,6 % del día 13/10/2017
  • 8 - 19,6 % del día 12/10/2017
  • 9 - 19,8 % del día 11/10/2017
  • 10 - 19,9 % del día 10/10/2017
  • 11 - 19,9 % del día 09/10/2017
  • 12 - 19,7 % del día 08/10/2017
  • 13 - 20,2 % del día 07/10/2017
  • 14 - 20,5 % del día 06/10/2017
  • 15 - 20,6 % del día 05/10/2017
  • 16 - 20,7 % del día 04/10/2017
  • 17 - 20,8 % del día 03/10/2017
  • 18 - 21 % del día 02/10/2017
  • 19 - 21,1 % del día 01/10/2017
  • 20 - 21,2 % del día 30/09/2017
  • 21 - 21,3 % del día 29/09/2017
  • 22 - 21,5 % del día 28/09/2017
  • 23 - 21,8 % del día 27/09/2017
  • 24 - 21,7 % del día 26/09/2017
  • 25 - 21,2 % del día 25/09/2017
  • 26 - 22,3 % del día 24/09/2017
  • 27 - 22,6 % del día 23/09/2017
  • 28 - 23,1 % del día 22/09/2017
  • 29 - 23,3 % del día 21/09/2017
  • 30 - 24 % del día 20/09/2017
  • 31 - 24,2 % del día 19/09/2017
  • 32 - 24,7 % del día 18/09/2017
  • 33 - 25,4 % del día 17/09/2017
  • 34 - 25,9 % del día 16/09/2017
  • 35 - 26,5 % del día 15/09/2017
  • 36 - 26,7 % del día 14/09/2017
  • 37 - 27,5 % del día 13/09/2017
  • 38 - 27,8 % del día 12/09/2017
  • 39 - 28,5 % del día 11/09/2017
  • 40 - 29,1 % del día 10/09/2017
  • 41 - 30 % del día 09/09/2017
  • 42 - 31,1 % del día 08/09/2017
  • 43 - 32 % del día 07/09/2017
  • 44 - 33 % del día 06/09/2017
  • 45 - 34,3 % del día 05/09/2017
  • 46 - 35,4 % del día 04/09/2017
  • 47 - 36,5 % del día 03/09/2017
  • 48 - 38 % del día 02/09/2017
  • 49 - 39,3 % del día 01/09/2017
  • 50 - 41,6 % del día 31/08/2017
  • 51 - 44,7 % del día 30/08/2017
  • 52 - 15,3 % del día 29/08/2017
  • 53 - 15,9 % del día 28/08/2017
  • 54 - 15,9 % del día 27/08/2017
  • 55 - 16 % del día 26/08/2017
  • 56 - 15,8 % del día 25/08/2017
  • 57 - 16 % del día 24/08/2017
  • 58 - 15,9 % del día 23/08/2017
  • 59 - 16,1 % del día 22/08/2017
  • 60 - 16,2 % del día 21/08/2017

 

|| Temperatura Ambiente|| Humedad relativa|| Velocidad y dirección del viento|| Precipitación|| Radiación Solar Global y PAR|| Presión atmosférica|| Más información|| Volver a la página principal|| Volver al inicio de la página||


Estación Meteorológica de la Universidad de Murcia
http://estacion.um.es/
Informacion actualizada a: 20/10/2017 a las 01:34:00